Location: Brasstown Bald
(34.8693°N, 83.8103°W)
Time: 22:33:13
(UTC-05:00)

Amateur Radio Satellites - All Passes

Search period start: 28 November 2014 22:03
Search period end: 29 November 2014 22:03
Location: Brasstown Bald, 34.8693°N, 83.8103°W

Satellite Date Start Highest point End Downlink Frequencies (MHz)
Time Altitude Azimuth
ANTELSAT 28 Nov 22:04:02 22:05:39 12° 93° (E) 22:07:16 437.575/2403.000
DOVE 4 28 Nov 22:05:10 22:09:03 27° 263° (W) 22:12:46 437.250
VELOX 1 28 Nov 22:05:21 22:09:39 49° 74° (ENE) 22:13:58 145.980
BRITE-PL 28 Nov 22:09:03 22:11:48 15° 266° (W) 22:14:27 437.365/2234.400
DELFI C3 28 Nov 22:10:32 22:14:20 39° 262° (W) 22:18:11 145.870
SEEDS 28 Nov 22:13:02 22:14:39 12° 268° (W) 22:16:15 437.485
ESTCUBE 1 28 Nov 22:15:51 22:19:26 23° 69° (ENE) 22:23:02 437.505/2401.250
50 SAT 28 Nov 22:17:10 22:21:04 50° 75° (ENE) 22:24:58 437.505
CINEMA 3 28 Nov 22:18:09 22:22:01 30° 262° (W) 22:25:47 145.822/145.860
UKube-1 28 Nov 22:19:52 22:23:44 31° 262° (W) 22:27:36 .
QB50P1 28 Nov 22:22:12 22:23:27 11° 92° (E) 22:24:41 145.935-145.965
AAUSAT CUBESAT 2 28 Nov 22:23:31 22:25:09 12° 268° (W) 22:26:47 437.432
JUGNU 28 Nov 22:24:54 22:27:53 14° 169° (S) 22:30:53 437.505
FUNcube-1 28 Nov 22:27:41 22:31:48 53° 260° (W) 22:35:52 145.935
Oscar 11 28 Nov 22:29:31 22:32:48 21° 265° (W) 22:36:07 145.826/435.025
AISAT 28 Nov 22:33:23 22:37:52 76° 258° (WSW) 22:42:20 437.250
CUBEBUG 1 28 Nov 22:35:04 22:39:06 35° 72° (ENE) 22:43:09 437.445
ISS 28 Nov 22:37:20 22:40:34 56° 320° (NW) 22:43:48 145.825
POPSAT HIP 1 28 Nov 22:45:35 22:48:54 22° 96° (E) 22:52:13 437.405
HUMSAT D 28 Nov 22:49:27 22:53:27 49° 260° (W) 22:57:26 437.325/437.525
TIGRISAT 28 Nov 22:53:45 22:58:03 44° 99° (E) 23:02:25 435.000
DANDE 28 Nov 22:57:43 23:01:14 18° 77° (ENE) 23:05:22 436.750
DX 1 28 Nov 23:01:48 23:02:48 11° 268° (W) 23:03:47 434.975-435.025
UWE-3 28 Nov 23:03:16 23:06:05 17° 265° (W) 23:08:53 435.000/436.395/437.385
UNISAT 6 28 Nov 23:09:02 23:13:32 70° 102° (ESE) 23:18:07 437.425
CUBEBUG 2 28 Nov 23:10:46 23:12:34 12° 267° (W) 23:14:22 437.445
POLYITAN 1 28 Nov 23:20:23 23:24:35 62° 101° (E) 23:28:46 437.675
QB50P2 28 Nov 23:21:07 23:25:19 63° 101° (E) 23:29:31 145.880/145.840
DUCHIFAT 1 28 Nov 23:25:03 23:29:15 70° 101° (ESE) 23:33:26 145.980
TISAT 1 28 Nov 23:26:50 23:30:38 32° 72° (ENE) 23:34:25 437.305
ANTELSAT 28 Nov 23:38:17 23:42:41 54° 285° (WNW) 23:47:10 437.575/2403.000
VELOX 1 28 Nov 23:44:34 23:46:28 12° 267° (W) 23:48:21 145.980
NANOSAT C BR1 28 Nov 23:45:02 23:49:13 65° 285° (WNW) 23:53:23 145.865
SPROUT 28 Nov 23:46:12 23:50:20 48° 74° (ENE) 23:54:29 437.525
BUGSAT 1 28 Nov 23:49:29 23:53:32 70° 284° (WNW) 23:57:31 437.445
ESTCUBE 1 28 Nov 23:52:15 23:56:08 28° 263° (W) 00:00:04 437.505/2401.250
MaSat-1 28 Nov 23:54:52 23:56:12 14° 62° (ENE) 23:57:33 437.345
QB50P1 28 Nov 23:55:30 23:59:34 48° 286° (WNW) 00:03:37 145.935-145.965
CUSAT 1 28 Nov 23:59:21 00:04:39 79° 82° (E) 00:11:44 437.405
RS-15 29 Nov 00:05:16 00:15:35 39° 48° (NE) 00:26:14 29.354- 29.394
ITUPSAT 1 29 Nov 00:06:36 00:08:57 14° 65° (ENE) 00:11:18 437.325
JUGNU 29 Nov 00:12:16 00:16:10 18° 179° (S) 00:20:06 437.505
CUBEBUG 1 29 Nov 00:12:39 00:15:33 17° 266° (W) 00:18:28 437.445
SWISSCUBE 29 Nov 00:15:11 00:18:29 19° 67° (ENE) 00:21:48 437.505
POPSAT HIP 1 29 Nov 00:21:18 00:24:43 24° 290° (WNW) 00:28:08 437.405
SRMSAT 29 Nov 00:29:13 00:32:52 17° 173° (S) 00:36:32 437.500
TIGRISAT 29 Nov 00:31:54 00:34:25 15° 293° (WNW) 00:36:58 435.000
DANDE 29 Nov 00:39:32 00:44:35 54° 263° (W) 00:51:18 436.750
AUBIESAT-1 29 Nov 00:42:59 00:46:57 51° 69° (ENE) 00:51:17 437.475
BEESAT 29 Nov 00:44:21 00:48:40 35° 71° (ENE) 00:53:00 436.000
M-CUBED/EXP-1 PRIME 29 Nov 00:50:27 00:54:29 70° 71° (ENE) 00:58:55 437.505
TISAT 1 29 Nov 01:03:40 01:06:30 17° 265° (W) 01:09:20 437.305
SPROUT 29 Nov 01:25:04 01:26:39 12° 268° (W) 01:28:14 437.525
ITUPSAT 1 29 Nov 01:41:36 01:46:19 56° 259° (W) 01:51:04 437.325
Oscar 19 29 Nov 01:44:00 01:48:58 46° 100° (E) 01:53:55 437.125/150
CUSAT 1 29 Nov 01:45:23 01:47:39 12° 269° (W) 01:50:08 437.405
SWISSCUBE 29 Nov 01:51:32 01:56:01 39° 261° (W) 02:00:32 437.505
KKS-1 29 Nov 01:55:47 01:59:54 39° 72° (ENE) 02:04:02 437.445
Gurwin Techsat 1B 29 Nov 01:58:38 02:00:37 12° 91° (E) 02:02:36 435.225
JUGNU 29 Nov 02:01:12 02:04:29 15° 189° (S) 02:07:45 437.505
SO-50 29 Nov 02:15:15 02:18:43 22° 110° (ESE) 02:22:16 436.795
SRMSAT 29 Nov 02:17:22 02:21:21 18° 183° (S) 02:25:20 437.500
RS-15 29 Nov 02:17:22 02:28:23 60° 248° (WSW) 02:39:54 29.354- 29.394
AUBIESAT-1 29 Nov 02:21:01 02:22:20 11° 266° (W) 02:23:41 437.475
BEESAT 29 Nov 02:23:02 02:26:33 20° 265° (W) 02:30:05 436.000
YUBILEINY 29 Nov 02:26:42 02:35:23 67° 92° (E) 02:44:03 435.215
ITAMSAT 1 29 Nov 02:44:16 02:49:25 67° 102° (ESE) 02:54:32 435.822/435.867
STARS 29 Nov 02:44:18 02:48:42 85° 258° (WSW) 02:53:07 437.465
HORYU 2 29 Nov 03:09:27 03:13:13 26° 97° (E) 03:16:57 437.375
AO-7 29 Nov 03:18:50 03:23:31 16° 92° (E) 03:28:09 29.400- 29.500
Oscar 19 29 Nov 03:24:24 03:27:55 19° 294° (WNW) 03:31:25 437.125/150
KKS-1 29 Nov 03:33:59 03:36:39 16° 266° (W) 03:39:20 437.445
Gurwin Techsat 1B 29 Nov 03:35:43 03:41:00 68° 285° (WNW) 03:46:15 435.225
SO-50 29 Nov 03:55:00 03:59:03 32° 306° (NW) 04:03:13 436.795
SRMSAT 29 Nov 04:07:11 04:09:48 13° 193° (SSW) 04:12:26 437.500
PCSat 29 Nov 04:23:07 04:28:18 44° 59° (ENE) 04:33:26 145.827
ITAMSAT 1 29 Nov 04:25:58 04:28:17 13° 297° (WNW) 04:30:35 435.822/435.867
YUBILEINY 29 Nov 04:26:13 04:32:48 23° 290° (WNW) 04:39:25 435.215
BEESAT 3 29 Nov 04:29:44 04:33:40 39° 57° (ENE) 04:37:33 437.485
HORYU 2 29 Nov 04:46:07 04:49:45 25° 290° (WNW) 04:53:24 437.375
BEESAT 2 29 Nov 04:47:53 04:52:01 56° 59° (ENE) 04:56:06 435.950
O/OREOS (USA 219) 29 Nov 04:55:35 04:59:25 29° 103° (ESE) 05:03:16 437.305
MOZHAYETS 4 29 Nov 05:00:18 05:04:53 77° 258° (WSW) 05:09:31
PRISM 29 Nov 05:00:29 05:03:12 17° 68° (ENE) 05:05:55 437.425
ISS 29 Nov 05:08:33 05:11:35 33° 37° (NE) 05:14:37 145.825
AO-7 29 Nov 05:08:41 05:17:05 87° 288° (WNW) 05:25:28 29.400- 29.500
CUBESAT XI-V 29 Nov 05:18:41 05:19:20 10° 64° (ENE) 05:19:58 437.345
JAS-2 29 Nov 05:26:37 05:33:09 50° 98° (E) 05:38:52 435.910
STRAND 1 29 Nov 05:30:41 05:33:46 16° 65° (ENE) 05:36:52 437.568
AIST 2 29 Nov 05:37:34 05:41:52 86° 242° (WSW) 05:46:05 435.215
Cubesat XI-IV 29 Nov 05:50:57 05:54:33 18° 94° (E) 05:58:06 437.490
PCSat 29 Nov 06:07:23 06:11:21 21° 254° (WSW) 06:15:18 145.827
BEESAT 3 29 Nov 06:09:05 06:11:32 15° 251° (WSW) 06:13:57 437.485
BEESAT 2 29 Nov 06:29:02 06:29:45 10° 253° (WSW) 06:30:29 435.950
GONETS M04 29 Nov 06:29:06 06:30:55 11° 76° (ENE) 06:32:44
CUTE-I 29 Nov 06:30:09 06:35:14 45° 99° (E) 06:40:16 437.470
PRISM 29 Nov 06:34:38 06:38:27 34° 262° (W) 06:42:18 437.425
O/OREOS (USA 219) 29 Nov 06:35:18 06:38:47 22° 298° (WNW) 06:42:16 437.305
ISS 29 Nov 06:45:41 06:48:02 18° 231° (SW) 06:50:24 145.825
CUBESAT XI-V 29 Nov 06:51:24 06:56:06 72° 259° (WSW) 07:00:50 437.345
AO-7 29 Nov 07:03:42 07:08:41 18° 306° (NW) 07:13:41 29.400- 29.500
STRAND 1 29 Nov 07:07:28 07:12:28 53° 259° (W) 07:17:31 437.568
AIST 1 29 Nov 07:10:03 07:14:23 70° 265° (W) 07:18:40
JAS-2 29 Nov 07:12:30 07:17:38 24° 297° (WNW) 07:22:20 435.910
Cubesat XI-IV 29 Nov 07:29:45 07:34:49 46° 288° (WNW) 07:39:51 437.490
CUTE-I 29 Nov 08:11:11 08:14:55 20° 294° (WNW) 08:18:39 437.470
GONETS M04 29 Nov 08:17:20 08:26:05 75° 93° (E) 08:34:54
BRITE-PL 29 Nov 08:37:33 08:40:12 16° 95° (E) 08:42:54 437.365/2234.400
COMPASS 1 29 Nov 08:51:05 08:53:58 18° 94° (E) 08:56:51 437.405
CANX-2 29 Nov 08:56:03 08:59:54 31° 97° (E) 09:03:44 2200.000
DX 1 29 Nov 09:16:07 09:17:46 12° 93° (E) 09:19:25 434.975-435.025
HO-68 29 Nov 09:26:10 09:33:19 68° 103° (ESE) 09:40:24 435.675
GOMX 1 29 Nov 09:27:38 09:31:42 46° 100° (E) 09:35:55 467.674
CUBEBUG 2 29 Nov 09:28:13 09:29:44 12° 93° (E) 09:31:15 437.445
CUTE 1.7 + AOD 2 29 Nov 09:29:51 09:34:10 76° 102° (ESE) 09:38:27 437.475
POPSAT HIP 1 29 Nov 09:37:27 09:39:07 12° 66° (ENE) 09:40:47 437.405
ZACube-1 29 Nov 09:47:04 09:49:24 14° 94° (E) 09:51:44 437.345
TIGRISAT 29 Nov 09:50:19 09:53:48 25° 70° (ENE) 09:57:18 435.000
DELFI C3 29 Nov 09:54:43 09:58:32 35° 98° (E) 10:02:19 145.870
SEEDS 29 Nov 09:58:19 10:02:30 56° 285° (WNW) 10:06:42 437.485
VELOX 1 29 Nov 10:01:52 10:03:34 12° 93° (E) 10:05:15 145.980
UNISAT 6 29 Nov 10:05:30 10:09:28 39° 73° (ENE) 10:13:26 437.425
DOVE 4 29 Nov 10:06:37 10:10:51 81° 283° (WNW) 10:15:17 437.250
AAUSAT CUBESAT 2 29 Nov 10:07:43 10:11:54 59° 285° (WNW) 10:16:03 437.432
UKube-1 29 Nov 10:10:40 10:14:55 55° 101° (E) 10:19:09 .
POLYITAN 1 29 Nov 10:10:58 10:14:42 30° 72° (ENE) 10:18:25 437.675
QB50P2 29 Nov 10:11:28 10:15:13 31° 72° (ENE) 10:18:57 145.880/145.840
DUCHIFAT 1 29 Nov 10:14:57 10:18:46 33° 72° (ENE) 10:22:35 145.980
BRITE-PL 29 Nov 10:15:05 10:18:47 32° 287° (WNW) 10:22:35 437.365/2234.400
CINEMA 3 29 Nov 10:15:33 10:19:51 75° 102° (ESE) 10:24:19 145.822/145.860
GONETS M04 29 Nov 10:17:36 10:23:43 20° 292° (WNW) 10:29:54
Oscar 11 29 Nov 10:19:06 10:23:29 87° 101° (ESE) 10:27:50 145.826/435.025
FUNcube-1 29 Nov 10:19:41 10:23:37 34° 98° (E) 10:27:36 145.935
COMPASS 1 29 Nov 10:25:58 10:29:43 31° 288° (WNW) 10:33:29 437.405
AISAT 29 Nov 10:28:39 10:32:22 26° 97° (E) 10:36:04 437.250
CANX-2 29 Nov 10:32:37 10:35:35 19° 291° (WNW) 10:38:33 2200.000
ANTELSAT 29 Nov 10:34:22 10:38:38 89° 78° (ENE) 10:42:55 437.575/2403.000
NANOSAT C BR1 29 Nov 10:34:36 10:38:46 59° 75° (ENE) 10:42:57 145.865
BUGSAT 1 29 Nov 10:36:21 10:40:28 50° 74° (ENE) 10:44:33 437.445
HUMSAT D 29 Nov 10:37:33 10:41:21 32° 98° (E) 10:45:10 437.325/437.525
QB50P1 29 Nov 10:44:57 10:49:12 80° 76° (ENE) 10:53:27 145.935-145.965
DX 1 29 Nov 10:50:04 10:54:14 47° 287° (WNW) 10:58:23 434.975-435.025
SO-50 29 Nov 10:50:51 10:52:39 12° 44° (NE) 10:54:26 436.795
UWE-3 29 Nov 10:54:50 10:59:08 72° 284° (WNW) 11:03:31 435.000/436.395/437.385
CUBEBUG 2 29 Nov 11:02:28 11:06:37 49° 285° (WNW) 11:10:54 437.445
GOMX 1 29 Nov 11:07:45 11:09:28 12° 293° (WNW) 11:11:13 467.674
POPSAT HIP 1 29 Nov 11:10:27 11:14:34 49° 260° (W) 11:18:42 437.405
HO-68 29 Nov 11:15:18 11:20:20 21° 300° (WNW) 11:25:20 435.675
ZACube-1 29 Nov 11:21:53 11:25:53 40° 286° (WNW) 11:29:58 437.345
TIGRISAT 29 Nov 11:27:13 11:30:30 22° 264° (W) 11:33:47 435.000
DELFI C3 29 Nov 11:31:03 11:33:30 15° 292° (WNW) 11:35:57 145.870
VELOX 1 29 Nov 11:36:08 11:40:23 49° 286° (WNW) 11:44:37 145.980
50 SAT 29 Nov 11:36:30 11:40:29 54° 285° (WNW) 11:44:29 437.505
SPROUT 29 Nov 11:39:13 11:40:11 11° 92° (E) 11:41:10 437.525
UNISAT 6 29 Nov 11:44:11 11:46:25 14° 267° (W) 11:48:39 437.425
POLYITAN 1 29 Nov 11:47:44 11:50:40 18° 265° (W) 11:53:35 437.675
ESTCUBE 1 29 Nov 11:47:50 11:52:23 80° 102° (ESE) 11:56:53 437.505/2401.250
QB50P2 29 Nov 11:48:15 11:51:09 18° 265° (W) 11:54:03 145.880/145.840
UKube-1 29 Nov 11:49:10 11:50:34 11° 295° (WNW) 11:51:58 .
DUCHIFAT 1 29 Nov 11:51:59 11:54:42 17° 266° (W) 11:57:25 145.980
FUNcube-1 29 Nov 11:56:55 11:59:42 17° 291° (WNW) 12:02:30 145.935
CUBEBUG 1 29 Nov 12:03:32 12:07:52 69° 284° (WNW) 12:12:09 437.445
AISAT 29 Nov 12:05:23 12:08:51 23° 291° (WNW) 12:12:19 437.250
DANDE 29 Nov 12:13:32 12:13:41 10° 93° (E) 12:13:50 436.750
HUMSAT D 29 Nov 12:14:08 12:16:54 17° 291° (WNW) 12:19:40 437.325/437.525
BUGSAT 1 29 Nov 12:15:06 12:16:11 11° 268° (W) 12:17:17 437.445
VERMONT LUNAR 29 Nov 12:19:22 12:22:33 30° 147° (SSE) 12:25:46 437.305
PHONESAT 2.4 29 Nov 12:24:03 12:27:00 23° 145° (SE) 12:29:59 2401.200-2431.200
SO-50 29 Nov 12:28:57 12:33:52 89° 61° (ENE) 12:38:46 436.795
YUBILEINY 29 Nov 12:42:00 12:49:06 27° 72° (ENE) 12:56:07 435.215
BEESAT 29 Nov 12:50:25 12:51:58 11° 92° (E) 12:53:30 436.000
TISAT 1 29 Nov 12:50:35 12:54:47 83° 283° (WNW) 12:58:59 437.305
Oscar 19 29 Nov 12:57:38 13:02:30 47° 72° (ENE) 13:07:23 437.125/150
CUSAT 1 29 Nov 13:11:24 13:13:56 41° 280° (W) 13:16:25 437.405
SPROUT 29 Nov 13:12:23 13:16:32 51° 286° (WNW) 13:20:40 437.525
Gurwin Techsat 1B 29 Nov 13:16:19 13:19:17 15° 64° (ENE) 13:22:16 435.225
ITUPSAT 1 29 Nov 13:45:49 13:50:28 48° 100° (E) 13:55:05 437.325
SWISSCUBE 29 Nov 13:55:08 13:59:55 70° 102° (ESE) 14:04:40 437.505
DANDE 29 Nov 13:56:17 13:57:00 11° 285° (WNW) 13:57:43 436.750
VERMONT LUNAR 29 Nov 13:57:21 14:00:54 57° 342° (NNW) 14:04:28 437.305
ITAMSAT 1 29 Nov 13:58:50 14:04:01 72° 75° (ENE) 14:09:13 435.822/435.867
PHONESAT 2.4 29 Nov 14:01:52 14:05:33 72° 339° (NNW) 14:09:16 2401.200-2431.200
AUBIESAT-1 29 Nov 14:03:35 14:08:29 78° 106° (ESE) 14:13:08 437.475
HORYU 2 29 Nov 14:05:58 14:08:45 17° 67° (ENE) 14:11:32 437.375
M-CUBED/EXP-1 PRIME 29 Nov 14:11:33 14:16:29 79° 288° (WNW) 14:21:11 437.505
AO-7 29 Nov 14:14:55 14:20:10 19° 55° (NE) 14:25:25 29.400- 29.500
BEESAT 29 Nov 14:25:25 14:30:09 60° 286° (WNW) 14:34:49 436.000
RS-15 29 Nov 14:26:30 14:35:29 30° 105° (ESE) 14:44:20 29.354- 29.394
YUBILEINY 29 Nov 14:37:51 14:46:16 57° 269° (W) 14:54:39 435.215
STARS 29 Nov 14:38:32 14:42:01 23° 96° (E) 14:45:29 437.465
Oscar 19 29 Nov 14:38:50 14:42:02 17° 267° (W) 14:45:15 437.125/150
MaSat-1 29 Nov 14:52:24 14:55:05 31° 295° (WNW) 14:57:34 437.345
Gurwin Techsat 1B 29 Nov 14:53:28 14:58:42 60° 259° (W) 15:03:57 435.225
O/OREOS (USA 219) 29 Nov 15:08:26 15:12:28 32° 65° (ENE) 15:16:29 437.305
ITUPSAT 1 29 Nov 15:25:09 15:27:55 16° 295° (WNW) 15:30:41 437.325
KKS-1 29 Nov 15:26:39 15:31:02 61° 285° (WNW) 15:35:24 437.445
JAS-2 29 Nov 15:34:57 15:40:12 20° 61° (ENE) 15:45:29 435.910
SWISSCUBE 29 Nov 15:35:52 15:37:08 11° 297° (WNW) 15:38:24 437.505
VERMONT LUNAR 29 Nov 15:36:28 15:39:45 32° 359° (N) 15:43:02 437.305
HORYU 2 29 Nov 15:40:59 15:45:05 38° 261° (W) 15:49:14 437.375
AUBIESAT-1 29 Nov 15:41:12 15:42:43 11° 302° (WNW) 15:44:13 437.475
PHONESAT 2.4 29 Nov 15:41:16 15:44:40 34° 356° (N) 15:48:05 2401.200-2431.200
ITAMSAT 1 29 Nov 15:42:43 15:43:57 11° 269° (W) 15:45:10 435.822/435.867
AO-7 29 Nov 16:03:34 16:11:51 88° 253° (WSW) 16:20:14 29.400- 29.500
STARS 29 Nov 16:14:46 16:18:25 26° 290° (WNW) 16:22:04 437.465
RS-15 29 Nov 16:36:04 16:46:57 65° 303° (WNW) 16:57:49 29.354- 29.394
O/OREOS (USA 219) 29 Nov 16:48:27 16:51:35 19° 259° (W) 16:54:43 437.305
MOZHAYETS 4 29 Nov 16:59:21 17:03:32 33° 97° (E) 17:07:42
Cubesat XI-IV 29 Nov 17:09:44 17:13:52 23° 67° (ENE) 17:17:59 437.490
VERMONT LUNAR 29 Nov 17:15:06 17:18:38 49° 16° (NNE) 17:22:10 437.305
JAS-2 29 Nov 17:16:36 17:24:15 81° 257° (WSW) 17:32:10 435.910
PHONESAT 2.4 29 Nov 17:20:21 17:23:55 43° 13° (NNE) 17:27:29 2401.200-2431.200
CUTE-I 29 Nov 17:48:41 17:53:53 54° 73° (ENE) 17:59:05 437.470
AO-7 29 Nov 18:01:33 18:05:32 14° 268° (W) 18:09:33 29.400- 29.500
PRISM 29 Nov 18:21:00 18:25:02 42° 99° (E) 18:29:00 437.425
BEESAT 3 29 Nov 18:22:54 18:25:32 17° 109° (ESE) 18:28:12 437.485
GONETS M04 29 Nov 18:32:36 18:40:11 31° 73° (ENE) 18:47:40
MOZHAYETS 4 29 Nov 18:37:04 18:40:31 21° 291° (WNW) 18:43:57
BEESAT 2 29 Nov 18:40:56 18:44:16 25° 111° (ESE) 18:47:40 435.950
Cubesat XI-IV 29 Nov 18:48:41 18:53:40 39° 261° (W) 18:58:40 437.490
CUBESAT XI-V 29 Nov 18:52:04 18:56:22 36° 98° (E) 19:00:36 437.345
VERMONT LUNAR 29 Nov 18:53:40 18:57:04 39° 211° (SSW) 19:00:28 437.305
RS-15 29 Nov 18:54:53 19:02:00 19° 330° (NNW) 19:09:11 29.354- 29.394
PHONESAT 2.4 29 Nov 18:59:09 19:02:47 53° 209° (SSW) 19:06:24 2401.200-2431.200
PCSat 29 Nov 19:01:05 19:06:29 82° 115° (ESE) 19:11:55 145.827
JAS-2 29 Nov 19:07:05 19:10:11 13° 273° (W) 19:13:19 435.910
STRAND 1 29 Nov 19:21:21 19:26:27 69° 102° (ESE) 19:31:29 437.568
CUTE-I 29 Nov 19:31:02 19:34:13 16° 267° (W) 19:37:24 437.470
AIST 2 29 Nov 19:32:54 19:36:54 46° 114° (ESE) 19:41:00 435.215
AIST 1 29 Nov 19:35:51 19:40:14 82° 96° (E) 19:44:40
BRITE-PL 29 Nov 19:45:48 19:48:45 16° 69° (ENE) 19:51:34 437.365/2234.400
CANX-2 29 Nov 19:47:23 19:49:55 16° 68° (ENE) 19:52:27 2200.000
HO-68 29 Nov 19:51:21 19:57:44 36° 66° (ENE) 20:04:08 435.675
PRISM 29 Nov 19:58:02 20:00:10 14° 294° (WNW) 20:02:18 437.425
BEESAT 3 29 Nov 19:59:41 20:03:26 35° 304° (NW) 20:07:16 437.485
BEESAT 2 29 Nov 20:19:02 20:22:27 25° 307° (NW) 20:25:56 435.950
CUTE 1.7 + AOD 2 29 Nov 20:20:00 20:23:48 34° 73° (ENE) 20:27:38 437.475
GONETS M04 29 Nov 20:28:50 20:37:12 50° 271° (W) 20:45:30
CUBESAT XI-V 29 Nov 20:30:18 20:33:30 19° 292° (WNW) 20:36:40 437.345
GOMX 1 29 Nov 20:32:52 20:37:10 36° 73° (ENE) 20:41:13 467.674
DELFI C3 29 Nov 20:41:44 20:44:08 15° 68° (ENE) 20:46:32 145.870
SEEDS 29 Nov 20:47:18 20:51:26 65° 76° (ENE) 20:55:37 437.485
PCSat 29 Nov 20:47:49 20:50:32 14° 312° (NW) 20:53:16 145.827
AAUSAT CUBESAT 2 29 Nov 20:55:42 20:59:46 59° 75° (ENE) 21:03:53 437.432
UKube-1 29 Nov 21:02:55 21:06:44 31° 71° (ENE) 21:10:34 .
STRAND 1 29 Nov 21:02:58 21:04:59 12° 297° (WNW) 21:07:00 437.568
DOVE 4 29 Nov 21:09:13 21:13:46 70° 76° (ENE) 21:18:05 437.250
Oscar 11 29 Nov 21:10:46 21:14:50 43° 73° (ENE) 21:18:55 145.826/435.025
AIST 2 29 Nov 21:13:08 21:15:46 16° 311° (NW) 21:18:27 435.215
FUNcube-1 29 Nov 21:13:48 21:16:41 18° 69° (ENE) 21:19:32 145.935
COMPASS 1 29 Nov 21:13:54 21:18:02 70° 259° (W) 21:22:13 437.405
CINEMA 3 29 Nov 21:14:38 21:18:47 44° 74° (ENE) 21:22:48 145.822/145.860
RS-15 29 Nov 21:17:41 21:21:12 12° 9° (N) 21:24:45 29.354- 29.394
CANX-2 29 Nov 21:21:39 21:25:32 36° 262° (W) 21:29:26 2200.000
BRITE-PL 29 Nov 21:22:14 21:26:58 44° 260° (W) 21:31:23 437.365/2234.400
AISAT 29 Nov 21:24:41 21:27:36 17° 67° (ENE) 21:30:32 437.250
HUMSAT D 29 Nov 21:28:10 21:30:39 16° 68° (ENE) 21:33:08 437.325/437.525
HO-68 29 Nov 21:38:44 21:45:17 38° 261° (W) 21:51:54 435.675
DX 1 29 Nov 21:42:07 21:46:30 86° 256° (WSW) 21:50:54 434.975-435.025
ISS 29 Nov 21:47:26 21:50:42 69° 135° (SE) 21:53:58 145.825
UWE-3 29 Nov 21:49:09 21:53:18 60° 76° (ENE) 21:57:24 435.000/436.395/437.385
CUTE 1.7 + AOD 2 29 Nov 21:57:16 21:59:49 16° 266° (W) 22:02:23 437.475
